Regional Weather Roundup
Issued by NWS Cleveland, OH

Home | Current Version | Previous Version | Text Only | Print | Product List | Glossary Off
Versions: 1 2 3 4 5 6 7 8 9 10 11 12 13 14 15 16 17 18 19 20 21 22 23 24 25 26 27 28 29 30 31 32 33 34 35 36 37 38 39 40 41 42 43 44 45 46 47 48 49 50

000
ASUS41 KCLE 221510
RWRCLE
OHIO REGIONAL WEATHER ROUNDUP
NATIONAL WEATHER SERVICE WILMINGTON, OH
1000 AM EST MON DEC 22 2014

NOTE: "FAIR" INDICATES FEW OR NO CLOUDS BELOW 12,000 FEET WITH NO
SIGNIFICANT WEATHER AND/OR OBSTRUCTIONS TO VISIBILITY.

OHZ001>008-015>018-024>027-034-035-043-044-221600-
   NORTHWEST OHIO

CITY           SKY/WX    TMP DP  RH WIND       PRES   REMARKS
DEFIANCE       PTSUNNY   29  24  82 E8        30.04F HAZE    WCI  21
FINDLAY        CLOUDY    30  25  81 SE6       30.04S HAZE    WCI  24
TOLEDO EXPRESS SUNNY     29  24  82 E6        30.06S HAZE    WCI  23
TOLEDO METCALF SUNNY     30  23  75 E8        30.08S HAZE    WCI  22
LIMA           CLOUDY    33  27  78 E6        30.01F HAZE    WCI  28
$$

OHZ009>014-019>023-028>033-038-089-221600-
   NORTHEAST OHIO

CITY           SKY/WX    TMP DP  RH WIND       PRES   REMARKS
CLE-HOPKINS    SUNNY     31  25  78 S7        30.12S WCI  24
CLE-LAKEFRONT  SUNNY     33  24  69 SE6       30.09F WCI  28
CUY CO. ARPT   SUNNY     34  27  75 S12       30.10F WCI  25
LORAIN-ELYRIA  SUNNY     28  24  85 S8        30.09S WCI  20
ASHTABULA      SUNNY     30  24  78 SE6       30.12F WCI  24
AKRON-CANTON   MOSUNNY   31  24  75 SE7       30.08F HAZE    WCI  24
WOOSTER        MOSUNNY   28  24  85 SE6       30.08S FOG     WCI  22
MANSFIELD      CLOUDY    29  25  85 SE9       30.05S FOG     WCI  20
YOUNGSTOWN     CLOUDY    29  24  82 SE12      30.10F WCI  19
$$

OHZ042-051>053-060>062-070>072-077>081-221600-
  SOUTHWEST OHIO

CITY           SKY/WX    TMP DP  RH WIND       PRES   REMARKS
CINC-COVINGTON PTSUNNY   41  29  62 SE9       29.99F
CINC-LUNKEN    PTSUNNY   37  31  78 CALM      30.03F
HAMILTON       PTSUNNY   38  31  76 E7        30.02F
DAYTON         PTSUNNY   34  29  82 SE7       30.01F HAZE    WCI  28
WRIGHT-PAT AFB PTSUNNY   34  29  80 VRB2      30.02F
DAYTON GENERAL CLOUDY    36  29  75 E6        30.00S
WILMINGTON     MOSUNNY   33  28  81 E5        30.01F HAZE    WCI  29
$$

OHZ036-037-039>041-045>050-054>059-063>069-073>076-082>088-221600-
  CENTRAL AND SOUTHEAST OHIO

CITY           SKY/WX    TMP DP  RH WIND       PRES   REMARKS
COLUMBUS       CLOUDY    33  26  75 SE5       30.06F WCI  29
OSU AIRPORT    CLOUDY    32  27  81 SE3       30.06R HAZE
BOLTON FIELD   CLOUDY    30  27  86 E6        30.05F WCI  24
RICKENBACK AFB CLOUDY    31  28  87 E5        30.05F WCI  26
NEWARK         CLOUDY    30  25  81 VRB3      30.07S HAZE
MARION         CLOUDY    32  26  78 SE8       30.05S HAZE    WCI  25
LANCASTER      CLOUDY    39  28  64 CALM      30.07S HAZE
ZANESVILLE     CLOUDY    30  25  81 NE3       30.07F HAZE
NEW PHILLY     CLOUDY    29  25  85 CALM      30.10F FOG
$$



USA.gov is the U.S. government's official web portal to all federal, state and local government web resources and services.